Theta_e
320 321 322 323 324 324 325 325 325 326 326 326 327 327 328 329 329 329 329 329 327 325 324 323 322 321 320 320 319 318 317 313 307 303 301 297 294 293 293 292 291 291 291 290 290 289 289 289 288 288 288 287 287 287 287 287 287 287 286 286 286 286 287 289 290 290 290 289 287 287 286 285 285 285 285 284 284 284 284 284 284 284 284 284 284
319 320 321 322 323 323 324 324 325 325 326 326 326 327 328 328 329 329 328 328 326 325 324 323 322 322 320 319 318 318 314 308 302 299 296 294 294 293 292 291 291 291 290 290 289 289 288 288 288 288 287 287 287 287 287 287 286 287 286 286 286 286 286 287 288 289 289 288 287 286 286 285 285 285 284 284 284 284 284 284 284 284 284 284 284
317 319 320 321 322 323 323 324 324 324 325 325 325 326 327 328 328 328 328 328 326 324 324 322 321 321 319 318 317 315 310 303 298 295 294 294 293 292 291 291 290 291 290 290 289 288 288 288 288 288 287 287 287 287 287 287 286 286 286 285 285 285 284 285 286 287 288 288 287 286 286 285 285 285 284 284 284 283 283 283 283 284 283 283 283
315 317 318 320 321 322 322 323 324 324 324 325 325 326 327 328 327 327 327 326 325 324 321 320 321 319 318 318 315 310 304 298 295 294 293 293 293 292 291 290 290 290 290 289 289 288 288 288 288 288 287 287 287 287 287 286 286 286 286 285 285 284 284 284 284 286 286 286 286 286 285 285 285 284 284 284 283 283 283 283 283 283 283 282 282
312 314 316 318 319 320 321 322 323 323 324 324 325 325 326 326 326 325 325 324 324 322 319 318 319 318 318 317 312 305 299 295 293 293 293 292 292 291 290 290 290 289 289 289 288 288 288 288 287 287 287 287 287 287 286 286 286 285 285 285 284 284 283 284 284 284 285 285 286 285 285 285 285 285 284 284 283 283 283 283 283 282 282 282 282
310 311 314 316 318 319 320 321 322 322 323 323 324 324 324 323 323 323 323 323 322 320 318 318 317 317 317 314 308 301 296 293 293 293 292 291 291 290 289 289 289 289 289 288 288 288 288 287 287 287 287 287 286 286 286 286 285 285 284 284 283 283 283 284 284 284 284 285 285 285 285 285 285 285 284 283 283 283 283 283 282 282 281 281 282
309 311 312 314 316 318 319 320 320 321 321 322 322 322 321 321 320 319 321 323 321 319 318 316 315 316 316 311 305 298 294 292 293 292 291 290 290 289 289 289 288 288 288 287 287 287 287 287 287 287 286 286 286 286 286 285 285 284 283 283 282 283 284 284 284 284 284 284 285 285 285 284 284 284 284 283 283 283 282 282 281 281 281 281 282
310 311 312 313 315 316 318 318 319 319 319 320 320 319 318 318 317 317 319 321 321 319 317 315 315 315 312 307 301 295 292 292 292 291 290 289 289 289 289 289 289 288 287 287 287 287 287 287 287 287 286 286 286 286 285 285 284 283 283 282 282 283 284 284 283 284 284 284 284 284 284 284 284 284 283 283 282 282 281 281 280 281 281 281 281
310 311 312 313 314 315 316 317 317 317 317 317 316 316 315 315 315 315 316 318 319 317 315 315 315 312 307 302 297 292 292 292 291 290 290 289 289 289 289 289 288 288 287 287 287 286 286 286 286 286 286 286 286 285 285 285 284 283 283 282 282 283 283 283 283 283 283 284 284 284 284 284 284 283 283 282 282 281 281 280 280 280 280 280 280
310 310 311 312 313 313 314 315 314 314 314 313 313 313 314 313 313 313 312 315 317 315 313 313 312 308 303 298 293 291 291 291 290 290 290 289 289 289 289 288 288 288 288 287 287 286 286 286 286 286 286 285 285 285 285 284 284 283 282 282 282 282 282 282 282 283 283 283 283 283 283 283 283 282 282 281 281 280 280 280 280 280 280 279 280
309 309 310 310 311 311 311 311 311 311 311 310 310 313 312 310 310 310 310 313 314 312 311 310 306 303 299 294 291 290 290 290 289 289 289 289 289 289 289 288 287 287 287 287 287 286 286 286 285 285 285 285 285 284 284 284 283 282 282 282 282 281 281 281 281 282 282 282 282 282 282 282 282 281 281 281 280 279 279 279 279 279 279 279 279
308 308 308 308 308 308 308 309 308 308 308 307 307 311 310 308 308 309 310 311 311 309 307 305 301 298 294 291 290 290 289 289 289 288 288 288 289 289 288 288 287 287 287 286 286 286 286 285 285 285 285 284 284 283 283 283 282 282 282 282 281 281 280 280 280 280 280 281 281 281 281 281 281 281 280 280 279 279 279 279 278 278 278 278 278
306 306 306 306 307 306 306 306 306 306 306 306 306 308 309 308 308 309 309 309 308 306 303 300 297 294 291 290 290 289 289 288 288 288 288 288 288 288 288 288 287 287 286 286 286 286 285 285 285 284 284 284 283 283 282 282 282 282 282 282 281 280 280 279 279 279 279 279 280 280 280 280 280 280 280 279 278 278 278 278 278 278 277 277 277
305 305 305 305 305 305 304 304 305 305 305 305 305 306 307 307 307 308 308 306 304 302 299 296 293 291 290 289 289 288 288 288 287 287 287 287 287 287 287 287 287 287 286 286 286 285 285 285 285 284 284 283 283 283 282 282 282 282 282 281 280 279 279 279 278 278 278 279 279 279 279 279 279 279 278 278 277 277 277 277 277 277 276 276 276
305 304 305 304 304 305 304 304 304 305 304 304 305 305 306 306 306 306 305 304 301 298 296 293 291 290 289 289 288 288 287 287 287 287 287 287 287 286 286 286 286 286 286 285 285 285 285 285 284 284 283 283 283 282 282 281 281 281 281 280 279 278 278 278 278 277 277 278 278 278 278 278 278 277 277 276 276 276 276 276 275 275 275 275 275
303 303 304 304 304 305 305 305 305 305 304 304 304 304 304 303 303 303 301 299 297 295 293 291 290 289 288 288 288 287 287 287 287 286 286 286 286 286 286 286 286 286 285 285 285 285 285 284 284 283 283 283 282 282 281 281 281 281 280 279 279 279 279 278 278 278 277 277 278 278 278 277 277 276 275 275 275 275 274 274 274 274 274 275 275
302 302 302 303 304 305 306 306 305 305 304 304 303 303 302 301 301 300 298 295 292 291 290 289 289 288 288 288 288 287 287 286 286 286 286 286 286 286 286 286 285 285 285 285 285 284 284 284 284 283 283 282 282 281 281 281 280 280 279 278 279 279 279 278 278 278 278 278 279 279 278 278 278 277 275 274 274 273 273 273 274 274 274 274 275
301 301 301 302 304 306 306 306 305 304 303 303 302 301 300 299 298 297 295 293 290 289 289 288 288 288 288 288 288 288 287 286 285 286 286 286 286 286 286 285 285 285 285 285 284 284 284 284 283 283 283 282 282 281 281 281 280 279 278 278 278 277 277 277 278 278 278 279 279 279 279 278 278 277 275 274 273 272 272 272 273 273 273 274 274
301 300 301 302 303 304 304 304 303 303 301 300 300 298 297 296 295 293 292 291 289 288 287 287 287 287 287 287 287 287 287 286 285 285 286 286 286 286 286 285 285 285 285 284 284 284 284 283 283 283 282 282 282 281 281 280 279 279 278 278 277 276 277 277 277 278 278 279 279 279 279 279 278 277 275 274 273 271 271 272 272 272 273 273 274
300 299 300 301 301 302 302 301 301 301 300 298 297 296 294 293 291 290 289 288 287 287 286 287 287 287 287 287 287 287 287 286 285 285 285 285 285 285 285 285 285 285 285 284 284 284 284 283 283 283 282 282 282 281 280 279 279 279 278 277 276 276 277 277 277 277 278 278 279 279 279 278 278 276 274 272 271 271 271 271 271 272 272 273 273
298 298 297 297 298 299 299 300 300 299 299 297 295 293 292 291 290 288 287 287 286 286 285 286 286 286 286 286 286 286 287 286 285 285 285 285 285 285 285 285 285 285 285 284 284 284 284 283 283 282 282 282 281 281 280 280 280 279 278 277 277 277 277 277 277 277 277 278 278 277 276 277 276 274 272 271 271 270 270 270 270 271 272 272 273
297 296 295 295 296 297 297 297 297 297 296 295 293 291 290 289 288 287 286 286 285 285 285 285 285 285 285 285 285 285 286 286 285 285 285 285 285 285 285 285 285 285 285 284 284 284 284 284 283 283 282 282 281 280 280 279 279 278 278 278 278 278 277 277 277 277 277 277 277 275 274 274 274 272 271 271 270 270 270 269 270 270 271 271 272
296 295 295 295 295 295 295 295 294 294 293 292 292 290 288 287 286 285 285 285 284 283 283 284 284 284 284 284 284 285 285 285 285 284 284 284 284 284 284 284 284 284 284 285 285 285 284 283 283 282 282 281 281 280 279 278 278 278 279 279 278 277 277 277 277 277 276 276 276 275 274 272 272 271 271 270 270 270 270 270 270 270 270 271 271
296 295 295 295 294 294 294 293 292 292 292 291 290 288 287 286 285 284 284 284 283 282 282 283 283 283 283 283 283 284 284 284 284 284 284 283 284 283 283 283 283 283 284 284 285 284 284 283 283 282 282 281 280 279 278 278 278 278 278 278 277 277 277 277 276 276 276 275 275 274 273 272 271 271 270 270 269 269 269 269 269 269 270 270 271
295 295 294 294 293 293 292 291 291 291 291 290 289 288 286 285 284 283 283 283 282 282 281 281 282 282 282 282 283 283 283 283 283 283 283 283 283 283 283 283 283 283 284 284 284 283 283 282 282 281 281 280 279 278 277 277 278 278 277 277 277 277 277 276 276 276 275 275 274 274 273 272 271 271 270 270 269 269 269 269 269 269 270 270 271
294 294 293 293 292 292 291 290 289 289 289 289 288 288 287 285 284 283 282 282 282 281 281 281 281 281 282 282 282 282 282 282 282 283 282 282 282 282 282 282 283 283 283 283 282 282 282 281 280 280 280 279 278 277 277 277 277 277 277 277 276 276 276 276 276 275 275 274 274 273 273 271 271 271 270 270 269 269 269 269 269 269 270 271 271
294 293 292 292 291 291 290 289 288 288 287 287 286 286 286 285 283 282 282 281 281 281 281 280 280 281 281 281 281 281 282 282 282 282 282 282 282 282 282 282 282 283 282 281 281 281 280 280 279 279 279 278 277 277 276 276 276 276 276 276 276 276 276 276 275 274 274 273 273 273 272 271 270 270 269 269 269 269 269 268 269 269 270 271 271
293 292 291 291 290 289 289 289 288 287 286 286 285 285 284 284 284 283 283 283 283 282 281 281 282 282 282 281 280 280 280 281 282 283 283 283 283 282 281 281 282 283 282 281 281 280 279 278 278 278 278 277 277 277 276 276 275 275 276 276 276 276 275 275 275 274 273 273 272 271 271 270 269 268 268 268 269 269 268 268 269 269 270 270 271
292 291 290 289 289 288 287 287 287 286 285 285 284 284 284 284 284 284 284 284 284 284 283 283 284 285 284 283 283 281 280 283 285 285 284 284 284 285 286 285 284 283 283 282 281 280 278 278 278 277 277 277 277 276 275 275 275 275 275 275 275 275 275 275 274 274 273 273 272 270 269 269 268 268 268 268 268 268 268 268 268 269 270 270 271
290 290 289 288 287 287 286 285 285 285 285 284 283 283 283 283 283 283 283 283 283 283 283 284 285 285 284 285 285 285 286 287 286 285 284 283 284 286 287 286 284 284 282 281 280 279 278 277 277 276 276 277 276 276 275 275 275 275 274 274 274 274 274 274 274 274 273 273 272 270 268 267 268 268 267 267 267 267 267 268 268 269 270 270 271
289 288 288 287 287 286 285 285 284 284 283 283 282 281 281 282 281 282 282 282 281 282 282 283 283 283 283 284 284 284 285 286 285 284 283 283 284 284 284 283 282 282 280 279 278 278 277 276 276 276 276 276 276 276 275 275 275 274 274 274 274 274 274 274 274 273 273 273 272 269 267 267 267 267 267 267 267 267 267 267 268 269 270 270 270
290 288 287 287 286 286 285 284 284 283 282 282 281 281 280 280 280 280 280 280 281 281 281 281 281 282 282 282 282 283 283 283 283 283 283 282 283 283 282 281 280 279 278 278 278 277 277 276 276 276 276 276 276 275 275 275 274 274 274 274 274 274 274 273 273 273 273 273 271 268 266 266 266 266 266 267 266 267 267 267 268 269 269 270 270
290 289 288 287 286 284 284 283 283 282 282 281 281 280 280 280 280 280 280 279 280 280 280 280 281 280 281 281 281 282 282 282 282 282 282 281 281 281 280 279 278 278 277 277 276 276 276 276 276 277 277 276 276 275 275 275 275 274 274 274 274 273 273 273 273 273 273 272 270 268 266 265 265 265 266 266 266 266 267 267 268 269 269 269 269
289 289 288 288 286 285 284 283 282 282 281 281 281 280 280 280 280 280 280 279 279 279 279 280 280 280 280 281 281 281 281 281 281 281 281 281 280 279 279 278 278 277 277 277 276 276 276 276 276 276 276 276 276 275 275 275 275 275 275 274 274 273 273 273 272 272 272 271 270 267 266 265 265 265 265 266 266 266 266 267 268 268 269 269 269
287 287 287 287 286 285 284 284 283 282 281 281 280 280 280 280 280 280 280 280 280 279 279 279 279 279 280 280 280 280 280 280 280 280 280 280 280 279 279 278 278 278 277 276 276 276 276 276 276 277 276 275 275 275 275 275 275 275 275 274 274 273 272 272 272 271 271 271 269 268 267 265 265 265 265 265 265 266 266 267 267 268 268 268 268
286 285 285 285 285 284 284 283 283 282 281 281 280 279 279 279 279 279 280 280 280 280 279 279 279 279 279 279 279 279 279 279 279 280 280 280 280 279 279 278 278 278 277 276 276 276 276 276 276 276 276 275 275 274 275 274 274 274 274 273 273 273 272 272 271 271 271 270 269 268 267 266 265 265 265 265 265 265 266 266 267 268 268 268 268
285 284 284 284 284 283 283 282 282 281 281 280 279 279 278 278 278 279 279 279 279 280 280 279 279 279 278 278 278 278 278 279 280 280 280 279 279 279 279 279 278 278 277 277 277 277 276 276 275 275 275 275 274 274 274 274 274 273 273 272 272 272 272 271 270 270 270 269 268 268 268 266 265 265 264 264 265 265 266 266 266 267 268 268 267
284 283 283 283 283 282 282 281 281 280 279 279 278 278 278 278 278 278 278 279 279 279 279 279 279 278 279 278 278 278 278 279 280 279 279 279 279 279 278 278 277 277 277 277 277 276 276 276 276 275 275 274 274 274 274 273 273 273 272 272 272 271 271 270 270 270 269 269 268 268 267 266 266 265 264 264 264 265 265 266 266 266 267 267 267
282 282 282 282 281 281 281 280 280 279 278 278 277 277 277 277 277 277 278 278 278 279 279 278 278 278 279 279 278 278 278 278 279 279 278 278 278 278 278 277 276 276 276 276 276 275 276 276 276 275 274 274 273 273 273 273 273 272 272 271 271 271 270 270 270 269 269 268 268 267 267 267 266 265 263 263 264 264 265 265 265 266 266 267 266
281 281 281 280 280 280 280 279 279 278 278 277 277 277 277 277 277 277 277 277 278 278 278 278 278 278 278 279 278 278 278 278 278 278 278 278 278 277 277 277 276 275 275 275 275 275 276 276 275 275 274 274 273 273 273 272 272 271 271 271 271 270 270 269 269 269 268 268 268 267 266 266 266 264 263 263 263 264 264 264 265 265 266 266 266
280 280 280 279 279 279 278 278 278 278 278 277 277 277 276 276 276 276 276 276 277 277 277 277 277 278 278 278 278 278 278 278 278 278 278 278 277 277 277 277 276 276 275 275 275 275 275 275 275 275 274 274 273 273 272 272 271 271 270 270 270 270 269 269 268 268 268 267 267 267 266 265 264 264 263 263 263 263 263 264 264 265 265 265 265
278 278 278 278 278 278 277 277 277 277 277 276 276 276 276 276 275 275 275 275 276 276 276 276 277 277 277 277 277 277 277 277 277 277 277 277 277 277 277 277 277 276 276 276 275 275 276 276 275 275 274 273 273 273 272 271 271 270 270 270 270 269 269 268 268 267 267 267 267 266 266 265 264 263 263 263 263 262 262 263 263 264 265 265 265
277 277 277 277 277 277 276 276 276 276 275 275 275 275 275 275 274 274 274 274 274 275 275 275 275 275 275 275 275 275 275 276 276 276 277 277 276 276 277 277 277 277 276 275 275 275 275 275 275 275 274 274 273 273 272 272 271 270 270 269 269 268 268 267 267 266 266 266 266 266 266 265 264 262 262 262 262 262 262 262 263 263 264 264 265
277 277 276 276 276 275 275 275 275 274 274 274 274 274 274 274 273 273 273 273 273 273 273 273 274 274 274 274 274 274 274 274 274 275 275 275 275 275 276 276 276 276 275 275 274 275 276 275 274 274 274 273 273 272 272 271 270 269 269 268 268 268 267 267 267 266 266 265 265 265 265 265 264 262 262 262 262 261 261 261 262 262 263 264 264
277 277 276 276 275 274 274 274 273 273 273 273 272 272 272 272 272 272 272 272 272 272 272 272 272 272 273 273 273 273 273 273 273 274 274 274 274 274 275 275 275 274 274 274 274 275 275 275 274 273 273 272 272 272 271 270 269 269 268 268 267 267 267 267 267 266 265 265 265 265 264 264 263 262 262 261 261 261 261 262 262 262 262 263 264
277 276 275 275 274 274 273 273 273 272 272 271 271 271 271 271 271 271 271 271 271 271 271 271 271 271 272 272 272 272 272 272 272 272 273 273 273 274 274 274 273 273 273 273 273 274 274 274 273 273 273 273 272 271 271 270 269 268 267 267 267 267 267 267 266 266 265 265 265 264 264 264 263 262 261 261 260 261 261 262 262 262 262 262 263
276 275 274 273 273 272 272 272 272 271 271 271 270 270 270 270 270 270 270 270 270 270 270 270 270 270 271 271 271 271 271 271 271 271 271 272 272 272 272 272 272 272 272 271 272 272 273 273 273 273 272 272 272 271 270 269 268 268 267 267 267 267 267 267 267 266 266 265 265 264 264 264 263 262 261 260 260 260 261 261 262 262 262 262 262
275 274 273 272 272 271 271 271 271 270 270 270 270 270 269 269 269 269 269 269 269 269 269 269 269 270 270 270 270 270 270 270 270 270 270 271 271 271 271 271 271 271 271 270 270 271 272 272 272 272 272 271 271 270 269 268 268 268 268 268 268 267 267 267 267 266 266 265 265 265 264 264 263 262 261 260 260 260 260 261 261 262 262 262 263
274 273 273 272 272 271 271 270 270 269 269 269 269 268 268 268 268 268 268 268 268 268 268 268 268 269 269 269 269 269 269 269 269 269 269 270 270 270 270 270 270 270 270 270 270 270 271 271 271 271 271 270 270 269 269 268 268 268 268 268 268 267 267 266 266 266 266 265 265 265 264 263 263 262 261 260 260 260 260 260 261 261 262 262 263
273 272 272 272 271 271 271 270 269 269 269 268 268 267 267 267 267 267 267 267 267 267 267 268 268 268 268 268 268 268 268 268 268 268 268 269 269 269 269 269 269 269 269 269 269 269 269 270 270 270 270 269 269 268 269 268 268 268 268 268 267 267 266 266 266 266 266 265 265 265 264 263 262 261 260 260 260 260 260 260 260 261 261 262 262
271 270 270 270 269 269 269 269 268 268 268 268 267 267 266 267 267 266 267 267 267 267 267 267 267 267 267 267 267 267 267 268 268 268 268 268 268 268 268 268 268 268 268 268 268 268 268 269 269 269 269 268 268 268 269 269 269 268 268 268 267 267 267 267 266 266 266 265 265 264 264 263 262 261 260 260 261 260 260 259 260 260 260 261 262
Wind_Speed
23 26 27 28 31 31 31 33 33 33 31 30 32 33 34 34 34 35 35 35 33 28 28 33 33 29 27 23 20 21 22 23 24 26 27 28 27 27 26 24 22 20 18 16 14 12 10 10 8 7 6 5 4 3 2 1 1 1 2 2 2 4 3 4 6 9 11 13 16 20 24 27 28 27 29 34 36 37 39 40 38 35 34 34 35
23 26 27 28 30 30 31 31 32 33 32 31 32 33 34 35 35 36 36 35 34 31 31 34 32 30 27 22 21 23 24 26 28 29 29 28 28 27 26 24 22 20 18 16 14 12 11 10 9 7 6 5 4 4 2 1 0 1 2 3 3 4 4 4 5 8 10 12 14 17 22 25 26 27 30 34 37 39 40 40 35 31 31 31 30
23 25 26 28 29 29 30 31 31 32 33 33 33 33 34 35 36 37 38 36 35 35 36 37 34 30 26 23 24 25 27 30 31 30 29 29 28 27 26 25 22 20 18 16 14 13 12 11 9 8 7 6 5 4 2 1 0 1 2 3 3 5 6 5 5 7 10 13 13 15 19 22 24 26 29 32 35 37 38 37 32 30 33 38 36
21 24 25 27 28 29 30 31 32 33 34 34 34 34 35 36 37 39 39 37 36 37 38 37 34 30 26 25 27 28 31 33 32 30 30 29 28 27 26 24 21 19 17 15 14 14 12 10 9 8 7 6 5 4 2 1 1 1 2 3 4 5 6 6 6 7 9 12 13 14 16 18 21 24 26 29 33 35 33 32 33 34 35 37 38
19 21 23 25 26 28 29 31 32 33 35 35 35 35 36 37 38 39 38 37 36 37 38 35 31 28 26 26 29 32 34 34 32 31 30 29 28 27 26 23 21 18 16 15 14 13 11 10 9 8 7 7 5 4 3 2 2 2 2 3 4 5 6 6 6 7 9 12 15 15 15 16 18 19 20 25 32 36 33 29 33 36 34 33 33
17 19 21 23 25 27 28 30 32 33 34 35 35 36 37 37 38 39 38 35 35 38 37 33 29 26 25 27 31 34 35 34 33 31 30 29 28 27 25 22 20 17 16 15 14 12 11 10 9 8 7 6 5 4 3 2 2 1 2 2 3 5 5 5 6 7 8 11 13 15 15 15 18 17 17 20 24 28 33 35 39 40 34 31 33
16 18 20 22 24 26 28 29 31 32 33 34 34 35 36 37 38 39 37 34 35 38 36 32 29 26 26 30 34 36 36 35 33 32 31 30 28 26 24 22 19 17 16 15 13 12 11 10 9 8 7 6 5 4 3 2 1 1 2 2 4 5 4 5 6 7 9 10 12 13 15 16 17 16 17 18 17 17 22 30 38 41 36 32 33
17 18 20 22 23 25 27 28 29 30 31 32 33 33 34 35 36 37 36 36 38 38 35 31 29 28 29 34 36 36 36 35 34 33 32 30 28 25 23 21 19 18 17 15 13 12 11 10 9 8 7 6 5 4 3 3 1 0 1 2 3 3 4 5 6 7 8 10 11 12 14 15 16 16 17 17 17 17 19 22 28 32 35 36 34
18 19 20 22 23 24 25 26 27 28 29 30 32 33 34 34 35 36 37 38 38 36 32 30 29 30 33 36 37 37 36 35 34 33 32 30 27 24 22 20 19 18 17 15 14 13 12 10 9 8 7 5 4 4 3 3 3 2 1 1 2 2 3 4 6 6 7 9 11 12 13 14 15 17 18 17 17 19 21 22 23 25 28 35 36
18 20 21 22 23 24 25 25 26 27 28 30 31 32 33 33 35 36 37 37 36 33 31 30 31 34 37 38 38 38 36 35 34 32 30 28 26 23 21 20 19 18 17 16 15 14 12 11 9 8 6 5 5 4 4 4 3 2 2 1 1 2 3 4 5 6 7 8 10 11 12 13 13 15 16 17 18 19 20 21 23 25 26 28 36
19 20 21 22 23 24 24 25 26 27 28 29 30 31 32 33 35 36 35 34 33 32 32 33 35 37 39 40 39 37 36 34 32 30 28 26 24 23 21 20 19 18 16 15 15 14 13 11 9 8 7 6 6 5 4 4 3 2 1 1 1 2 3 3 4 5 6 8 9 10 11 12 14 15 16 18 18 18 21 21 21 23 23 21 27
20 20 20 21 22 23 24 25 26 26 27 29 30 31 32 33 33 33 32 32 32 33 34 36 38 39 40 40 39 37 35 34 31 29 27 24 22 21 20 20 19 18 16 15 15 14 13 12 10 9 9 8 7 5 4 3 2 2 0 2 2 2 2 2 4 5 5 7 9 10 11 12 14 15 15 17 20 21 21 21 19 19 20 19 20
20 20 21 22 23 24 25 25 25 26 27 28 29 30 32 32 32 32 31 32 33 35 36 38 39 40 40 39 38 36 35 33 30 28 26 24 22 20 20 19 18 17 17 16 15 14 13 12 11 11 10 9 7 5 3 2 2 1 1 1 1 1 1 1 3 5 5 6 8 10 11 12 15 16 16 17 20 22 22 22 21 20 19 19 21
21 21 22 22 23 24 25 24 25 26 27 28 28 29 30 31 31 31 31 33 35 36 38 39 40 40 40 39 37 36 34 32 30 28 26 24 22 21 20 19 18 17 17 16 15 14 13 13 12 11 10 9 7 5 3 3 2 1 1 1 1 2 3 2 2 3 4 5 7 10 11 13 15 16 17 17 18 20 21 22 24 23 23 22 22
23 23 23 23 24 25 25 25 25 26 27 28 28 29 30 30 30 31 32 34 36 38 40 40 40 40 39 38 37 36 34 32 30 28 26 25 23 21 21 20 19 18 17 16 15 14 14 13 12 11 11 9 7 5 4 4 3 2 2 1 2 2 2 2 2 2 4 6 8 11 13 14 16 17 17 17 16 17 19 21 23 24 25 24 21
24 25 25 25 25 25 26 26 26 27 27 28 29 29 30 30 31 32 33 35 37 39 40 40 40 40 39 38 37 35 33 31 30 28 27 25 24 22 21 20 19 18 18 17 16 15 14 13 12 11 11 9 7 5 4 4 3 3 3 3 3 3 2 2 3 3 5 8 10 13 15 16 17 17 16 15 15 16 17 19 19 18 19 22 21
25 25 26 26 26 26 26 26 27 28 29 30 30 30 31 32 33 34 35 37 38 39 40 39 39 39 38 37 36 35 33 32 30 29 27 25 24 23 22 21 20 19 19 18 17 16 15 14 13 11 10 9 7 6 5 4 4 4 3 3 4 4 3 3 5 6 6 8 10 12 14 14 13 12 11 11 12 14 15 15 15 14 15 18 19
25 25 25 27 28 29 29 29 29 30 31 32 32 32 32 33 35 36 37 39 39 39 40 39 38 38 38 37 35 35 34 32 30 29 27 25 24 23 22 21 21 20 20 19 18 16 15 14 13 11 10 9 7 7 6 5 4 4 4 3 4 3 3 5 7 7 7 8 9 10 10 10 10 10 9 9 9 9 11 13 13 14 14 14 17
26 26 27 28 29 30 30 30 31 31 32 32 32 32 33 34 35 36 37 38 39 39 39 39 38 37 36 35 34 33 33 32 30 29 27 25 24 23 22 21 21 21 20 19 18 17 15 14 12 11 10 9 8 7 6 5 5 5 4 3 2 2 4 7 9 9 8 8 8 8 8 9 10 11 10 9 8 8 9 12 12 13 14 15 16
24 23 25 27 28 29 29 30 31 31 32 31 31 31 32 33 35 35 35 36 38 38 38 38 38 36 35 34 32 31 32 31 30 28 27 25 24 22 22 21 21 21 21 20 18 16 15 14 13 12 11 10 9 8 7 7 6 5 3 2 2 4 6 8 9 9 9 9 8 8 9 10 12 13 12 9 8 7 8 10 11 11 13 16 16
21 19 20 23 26 27 28 29 30 30 31 31 30 31 32 34 35 35 35 36 37 37 37 37 36 35 34 33 31 30 29 30 30 28 27 26 24 23 22 21 21 21 20 19 17 15 14 14 14 13 12 11 10 9 8 7 7 5 4 4 4 6 7 7 7 8 8 8 9 10 11 12 13 13 12 9 8 8 9 10 11 11 13 15 16
21 20 19 21 24 26 27 28 29 29 30 30 30 31 31 33 34 35 36 36 36 36 36 36 35 34 33 32 30 29 28 27 28 28 27 26 25 23 22 21 20 20 19 18 16 14 14 14 15 14 13 11 11 10 9 8 7 6 6 6 6 6 6 6 7 8 7 8 9 9 10 12 12 12 12 10 8 9 10 10 9 9 12 14 15
21 20 20 22 24 25 26 27 27 28 29 29 30 30 30 31 32 33 35 36 36 35 35 35 35 33 32 30 29 28 27 25 25 27 27 26 25 23 22 21 20 20 18 15 14 14 15 16 16 15 14 13 12 11 10 9 9 8 8 8 7 6 6 6 7 7 7 7 9 9 10 11 12 11 10 9 9 10 11 11 10 9 11 13 13
19 20 20 21 22 23 25 25 26 27 27 28 29 29 30 31 32 33 35 36 36 36 35 35 35 34 32 30 29 28 27 24 24 25 26 25 25 24 23 21 20 19 17 15 14 16 17 18 17 16 15 14 13 12 12 11 11 10 10 8 7 7 7 7 7 6 7 7 8 9 10 11 11 10 10 11 12 13 12 11 11 11 11 11 12
18 19 20 21 21 22 23 24 24 25 27 28 30 31 32 33 33 34 36 37 38 38 36 36 35 35 33 32 31 30 28 25 24 24 24 24 24 23 23 22 21 19 17 16 17 18 18 18 17 16 15 14 13 13 13 13 13 12 10 9 8 8 8 7 6 6 7 7 8 9 10 10 10 10 11 12 13 13 11 11 11 11 10 10 11
18 19 20 20 21 22 22 23 24 25 26 28 30 32 34 35 35 35 36 37 37 37 36 36 35 34 34 34 33 33 31 28 26 25 24 23 22 22 22 21 20 19 18 18 18 19 18 17 17 16 15 14 14 14 14 14 13 12 11 10 9 9 8 7 7 6 7 7 8 9 10 10 10 11 12 13 13 13 12 11 12 11 10 10 11
18 19 20 20 21 22 23 24 25 25 27 28 30 31 34 36 36 37 38 38 37 36 36 37 37 36 36 35 34 34 33 31 30 29 28 26 24 23 22 21 20 21 21 21 20 20 20 18 18 17 17 16 15 15 15 15 14 13 12 11 10 9 8 7 7 7 7 8 9 10 10 10 10 10 11 12 13 13 12 11 12 13 13 12 12
18 19 20 21 22 23 24 25 26 27 28 30 31 32 35 36 38 41 43 43 43 42 41 42 43 43 42 39 35 34 34 35 35 35 33 31 29 28 26 25 25 25 24 24 23 23 21 20 19 19 18 16 16 16 16 16 15 15 14 12 11 10 8 7 7 7 8 8 9 10 10 10 9 9 9 10 11 12 10 10 12 14 14 13 13
17 18 19 20 21 22 23 24 26 27 28 30 31 33 35 37 39 41 42 44 45 45 45 47 47 47 46 44 40 38 38 39 39 37 36 34 32 30 28 28 28 27 26 26 26 25 23 21 21 20 19 18 17 17 18 18 17 16 15 13 12 10 9 8 8 8 8 8 9 9 9 8 8 8 8 8 10 10 9 10 12 13 14 14 13
17 18 18 19 20 21 22 23 24 25 26 28 28 29 30 33 36 36 37 38 38 38 40 44 45 45 45 45 43 40 40 39 38 37 37 35 33 30 27 27 27 26 26 26 25 24 24 23 23 22 21 20 20 20 20 19 18 17 16 14 12 11 10 9 9 8 8 8 8 8 7 7 8 8 7 7 8 8 8 9 10 12 13 13 13
18 18 18 19 20 21 21 22 23 24 25 26 27 25 25 27 29 31 32 32 32 32 34 36 39 40 41 41 40 39 37 36 35 37 37 35 33 31 29 28 28 27 26 26 26 26 25 25 25 25 23 22 23 23 22 21 20 19 17 15 13 12 11 10 9 8 8 8 8 7 6 7 8 7 6 7 7 8 8 8 9 10 11 12 13
16 17 18 18 18 19 20 21 22 23 23 24 25 25 24 23 23 26 28 28 28 29 29 30 31 32 33 36 37 37 36 33 32 34 35 34 33 31 30 28 27 26 25 25 26 27 27 27 27 26 25 25 25 24 23 23 22 21 18 16 14 13 11 11 10 8 8 7 7 7 6 6 7 7 6 6 7 7 7 9 9 10 11 12 12
14 14 16 17 17 18 19 20 21 22 23 24 25 26 26 23 20 21 24 25 25 26 27 27 27 27 28 30 33 35 35 33 29 28 32 33 31 28 26 25 24 24 25 27 28 29 28 29 29 27 27 27 27 25 24 24 24 22 19 17 15 14 12 11 10 9 8 7 7 7 8 7 7 6 6 5 5 6 7 8 9 10 11 12 12
12 12 13 14 16 17 18 20 21 22 23 24 25 25 27 26 22 21 21 20 20 22 25 26 27 27 27 27 28 31 33 32 27 25 27 30 28 25 23 21 20 22 26 29 30 30 29 30 30 28 28 28 27 27 26 25 24 23 20 18 16 14 13 12 11 10 8 7 7 7 7 8 7 6 5 5 4 5 6 7 8 9 10 11 12
12 11 11 12 14 15 17 18 20 21 21 23 24 25 26 25 24 22 22 21 20 21 23 23 25 26 26 26 26 27 29 29 26 23 24 26 26 24 23 22 23 26 28 30 31 31 31 31 31 30 29 29 29 28 27 26 24 23 21 19 17 15 14 13 12 11 9 8 7 7 7 8 7 6 5 5 4 5 6 7 8 9 10 11 12
12 11 11 11 12 14 15 17 18 19 20 21 22 23 23 23 22 21 21 22 22 21 20 20 21 21 22 23 23 23 23 24 23 23 24 25 25 26 27 30 31 33 33 33 33 33 32 32 31 30 29 30 30 29 27 25 24 22 20 19 17 15 15 14 13 12 10 9 8 8 8 8 7 6 6 5 5 5 6 7 8 9 10 10 11
11 11 11 11 12 12 13 14 15 17 18 19 20 20 20 21 21 20 19 20 21 20 19 20 20 19 18 20 21 20 20 20 20 21 23 24 24 27 31 34 35 35 36 37 37 36 35 33 32 31 30 30 30 29 26 25 24 22 21 19 18 16 15 14 14 13 12 11 9 9 8 8 7 6 6 5 5 6 6 6 8 10 10 10 10
11 11 11 11 11 11 12 13 14 15 16 17 18 19 19 20 21 21 19 19 20 20 20 21 22 22 22 23 22 21 20 19 19 21 23 25 27 30 34 36 36 37 39 40 39 37 36 35 33 32 32 31 30 29 27 25 24 23 21 20 18 17 16 15 15 14 14 12 11 10 9 9 7 6 5 5 6 6 6 6 8 10 10 10 9
10 10 10 10 10 11 11 12 13 14 15 16 17 18 19 19 19 20 20 19 20 21 21 21 24 27 27 26 25 24 23 24 26 29 30 30 32 34 36 36 36 37 39 40 39 37 36 35 34 33 32 31 30 29 27 25 24 23 22 20 19 18 17 16 16 15 15 13 12 10 10 9 8 6 5 5 6 7 7 7 8 9 10 9 8
9 9 10 10 10 10 11 11 12 13 15 16 17 18 19 20 20 20 20 20 21 22 22 23 26 29 30 29 28 28 30 31 33 35 35 35 35 36 36 38 39 38 38 40 40 38 36 34 33 32 31 31 30 29 27 26 25 23 22 21 20 19 18 17 16 16 15 14 13 11 11 10 8 7 6 6 6 7 8 8 9 9 10 10 9
7 8 9 9 10 10 10 11 12 13 14 16 17 18 19 20 21 20 21 21 22 23 23 24 26 28 29 29 30 31 32 34 34 35 35 36 37 37 38 41 42 41 40 40 40 40 38 36 34 32 32 31 30 29 27 26 25 24 23 22 21 20 19 18 17 17 16 15 13 12 12 11 9 7 7 7 7 8 8 8 9 9 10 10 10
6 7 7 8 9 9 10 11 12 13 14 15 17 17 18 19 20 20 21 22 23 23 24 25 26 26 26 27 28 30 32 34 34 35 36 37 38 39 41 42 43 43 43 42 40 39 38 37 35 33 33 32 31 29 28 27 26 25 24 23 22 21 20 19 18 17 16 15 14 13 13 11 10 9 8 8 8 8 8 8 8 9 10 10 9
4 4 5 6 7 8 9 10 11 12 14 15 16 17 18 18 19 20 21 22 23 23 24 25 25 25 25 25 26 27 31 34 35 36 37 37 38 41 43 44 44 44 43 41 39 37 36 35 34 33 32 32 31 29 28 27 26 25 24 23 22 21 21 20 19 18 17 16 15 14 14 13 12 10 9 9 9 9 9 9 8 9 10 10 10
3 2 3 4 5 7 9 10 11 13 14 14 15 16 17 17 18 19 20 21 23 23 24 24 25 24 24 25 25 27 31 35 36 37 38 37 38 40 43 44 43 43 43 42 40 38 34 33 34 33 31 30 30 28 27 26 26 25 24 23 22 22 21 20 19 17 16 16 16 15 14 13 12 11 10 10 10 9 9 9 9 9 9 10 10
2 2 3 4 5 7 8 9 11 12 13 13 14 15 16 17 18 19 20 21 22 22 23 24 24 24 25 25 27 29 32 35 36 38 39 39 40 41 42 42 41 42 42 42 41 38 34 33 34 33 32 32 31 29 28 27 26 25 25 24 23 22 21 19 17 17 17 18 17 16 15 14 14 13 12 11 10 9 9 11 11 10 10 10 11
1 2 3 4 5 7 8 9 10 11 12 13 14 15 16 17 17 18 20 20 20 21 22 22 22 23 25 26 28 30 32 34 36 37 39 41 42 43 43 42 41 41 41 40 40 37 35 34 34 34 33 33 31 30 29 28 26 25 25 24 22 22 20 19 17 18 19 18 17 16 16 16 15 14 13 12 11 11 11 13 13 12 11 11 12
1 2 3 4 6 7 8 9 10 11 12 13 14 15 16 17 18 19 20 20 20 21 22 22 21 22 24 26 27 29 31 33 35 37 38 40 41 42 42 41 41 41 41 40 39 37 36 36 36 35 34 32 31 30 29 27 26 25 24 24 22 21 20 19 18 19 19 18 18 17 17 17 17 16 14 13 12 12 13 14 14 13 13 13 13
2 3 4 5 6 8 8 9 10 11 12 13 14 15 16 17 18 19 20 20 20 22 23 24 24 24 26 27 29 29 30 32 34 35 37 38 38 38 39 39 40 40 41 40 39 38 37 36 36 35 34 32 31 30 29 27 26 25 25 24 22 20 19 19 19 19 19 18 18 18 18 18 18 18 16 15 15 15 14 15 15 14 14 14 12
4 4 5 6 7 8 9 10 11 12 13 13 14 15 16 17 18 19 20 21 21 22 23 24 24 24 25 27 29 29 30 32 33 34 35 36 37 36 36 37 37 38 39 39 39 38 37 37 36 35 34 32 30 29 28 27 26 25 24 23 21 19 18 19 19 18 18 18 18 18 18 18 19 19 18 17 18 17 17 16 16 15 15 14 13
6 7 7 8 9 9 10 11 12 13 14 15 15 14 14 16 17 17 17 18 20 20 20 22 24 25 26 27 29 29 29 31 32 33 34 35 36 35 34 35 35 36 37 37 37 37 37 37 36 34 33 31 30 28 28 27 26 25 24 22 20 19 19 19 19 18 18 18 18 18 18 18 19 19 19 19 19 19 18 18 17 16 15 15 14
7 8 9 10 10 11 11 12 13 14 15 15 14 13 12 12 12 11 11 12 14 13 14 16 18 20 22 24 27 29 29 30 31 32 33 34 34 33 32 33 34 35 35 36 36 35 36 36 35 33 32 30 29 28 27 27 26 24 23 21 20 20 19 19 18 17 17 17 18 18 18 19 19 20 20 20 20 19 19 18 17 17 16 16 14
Wind_Direction
216 216 216 216 216 216 216 215 215 215 213 214 215 216 216 215 213 212 211 206 201 204 209 204 200 202 199 198 208 216 218 211 198 187 181 178 177 175 174 173 171 169 167 165 164 164 167 171 169 169 169 171 177 179 173 156 58 360 352 357 329 321 308 265 271 287 305 318 323 331 340 342 344 347 345 344 347 348 347 347 346 342 339 336 334
218 218 217 217 217 217 216 216 215 214 212 213 213 214 215 213 212 210 206 203 202 204 205 201 200 203 201 203 212 214 211 201 188 181 180 179 177 175 174 172 171 171 169 167 166 168 172 175 173 174 174 175 180 178 178 189 9 341 342 347 318 309 309 289 285 291 300 315 323 330 338 341 340 343 345 345 345 345 345 345 343 338 335 332 328
219 218 218 218 218 217 216 215 214 212 211 212 212 213 213 212 211 208 203 202 203 203 203 201 198 199 201 208 212 208 202 192 184 181 181 179 177 175 174 173 174 174 171 169 171 173 176 177 178 177 174 174 179 180 182 193 310 321 315 323 315 308 314 316 309 300 300 312 324 328 332 336 337 340 343 343 342 341 341 341 339 335 336 337 334
217 216 216 217 216 215 214 214 213 212 211 212 213 212 212 210 209 205 201 201 202 202 200 197 195 196 200 206 206 200 194 187 181 181 181 180 179 176 173 174 176 174 172 172 174 177 179 180 180 177 175 177 181 185 191 201 255 285 297 312 316 318 329 336 325 310 304 308 317 324 325 328 331 337 341 339 338 339 339 337 336 335 336 338 338
215 215 215 215 214 213 213 212 212 211 210 211 211 211 210 208 206 203 200 199 199 199 196 193 193 196 200 204 201 194 189 184 180 180 181 181 179 176 174 175 175 172 172 176 176 177 180 181 181 177 177 182 185 191 199 207 233 256 291 303 320 337 343 342 326 314 306 304 311 320 323 324 327 334 339 337 337 339 337 333 333 335 334 334 334
216 215 214 214 213 212 211 211 210 209 209 209 209 208 207 205 202 200 198 198 197 195 194 194 195 198 202 202 197 191 185 182 181 180 181 181 179 177 175 174 173 172 174 176 176 177 179 180 181 178 180 188 191 195 202 207 228 267 301 306 340 355 346 330 320 314 306 303 308 316 322 327 328 331 337 338 336 335 335 333 334 336 334 331 330
217 216 215 214 213 211 210 210 209 208 207 208 207 205 205 203 199 194 194 197 196 193 192 195 196 198 202 199 193 188 184 181 181 181 180 180 179 177 175 173 173 174 176 176 176 177 179 179 181 181 184 191 195 198 203 206 225 298 326 339 1 359 339 319 316 314 310 310 313 317 322 326 326 326 331 337 335 332 336 335 331 332 331 327 327
218 217 215 214 213 212 210 209 208 207 206 205 204 204 202 199 195 191 190 193 194 193 193 194 195 196 198 194 189 186 183 181 182 182 181 180 180 178 176 175 175 175 175 176 176 177 179 180 182 185 187 194 199 203 207 211 208 270 354 3 9 350 329 319 315 316 317 317 318 319 321 322 325 328 331 338 340 336 337 332 322 322 325 323 323
217 215 214 213 214 212 210 208 207 205 204 203 201 199 196 194 193 190 188 188 190 192 195 196 196 194 192 189 185 184 183 183 184 184 182 180 179 179 177 177 178 178 176 176 177 178 181 183 184 186 190 196 204 210 215 215 195 160 149 354 355 328 316 317 316 320 322 320 318 319 321 321 325 330 333 337 337 328 327 326 317 316 320 319 319
215 214 212 211 211 209 207 206 205 203 202 200 197 194 192 193 192 188 185 186 189 192 195 196 195 191 187 184 183 183 184 185 185 185 184 183 181 180 178 178 179 179 179 177 177 179 183 186 187 186 188 195 206 218 225 217 190 155 164 214 320 306 305 312 313 319 321 316 314 316 317 315 321 328 327 326 327 324 323 323 319 320 323 320 320
213 212 211 209 208 205 203 201 200 199 198 194 192 193 193 190 187 185 184 186 189 191 193 192 189 187 184 183 182 183 184 185 184 185 186 185 184 182 179 179 179 180 181 180 180 183 184 186 185 183 187 195 203 215 221 207 179 137 155 260 288 270 278 299 306 313 312 304 304 308 308 308 315 322 321 321 323 322 321 320 318 320 324 321 318
210 209 208 207 204 201 199 197 195 194 194 190 186 188 189 186 184 185 186 187 188 189 189 188 186 184 183 182 182 183 184 184 183 183 184 186 187 185 182 181 180 180 182 183 184 185 185 185 184 183 188 194 198 206 211 197 163 132 180 306 291 251 243 272 286 297 299 295 297 300 303 309 313 316 319 322 321 319 317 317 316 314 314 313 308
207 205 204 204 202 199 196 193 191 190 190 188 185 184 186 186 186 187 187 187 188 187 186 185 183 182 182 182 182 183 183 183 182 183 184 185 186 186 184 183 182 182 183 185 186 187 187 186 185 186 190 194 196 200 202 194 169 138 353 321 294 303 342 295 269 275 278 285 290 292 300 309 309 309 315 319 318 317 317 314 313 312 307 305 303
202 201 201 200 199 198 194 191 189 189 188 188 187 185 185 186 187 188 188 187 187 186 185 183 182 182 183 182 182 182 183 182 182 183 184 184 185 186 185 183 182 183 185 187 188 189 189 188 188 190 190 192 196 199 194 189 198 236 320 299 270 325 342 329 296 284 280 286 290 292 299 303 302 304 311 315 314 312 311 309 310 311 305 301 301
198 199 198 196 195 193 192 190 188 188 188 187 186 185 186 187 189 190 190 189 188 185 184 182 181 181 183 183 182 182 182 182 183 184 185 185 184 185 185 183 183 184 185 188 190 191 192 192 193 192 191 194 199 200 195 195 210 256 298 291 286 321 326 315 330 321 300 295 290 291 293 295 297 300 303 309 309 304 303 302 302 304 302 302 305
199 199 198 197 196 193 191 190 189 189 189 187 187 188 189 190 191 191 189 187 186 185 183 182 182 181 182 184 183 181 181 183 184 185 187 187 185 185 185 184 184 184 186 189 191 193 195 194 193 193 194 198 202 202 205 210 227 263 284 295 310 334 348 330 342 340 312 300 294 292 292 289 290 292 294 301 304 304 304 302 300 304 305 306 310
201 202 201 201 202 201 199 198 196 195 194 192 192 193 192 192 192 190 187 184 183 184 182 182 183 183 183 184 184 182 182 183 185 186 188 188 187 186 185 184 185 186 188 190 192 194 196 195 194 196 197 201 205 209 214 219 235 257 273 295 317 345 3 330 333 342 329 314 306 299 296 295 293 294 296 298 301 306 308 304 303 309 310 309 311
203 204 205 205 206 206 206 205 203 202 199 197 196 194 193 193 191 189 187 185 184 184 183 182 183 184 185 185 186 186 184 183 185 188 189 190 190 189 187 186 186 187 189 191 193 196 197 196 196 198 200 205 211 215 218 224 238 250 264 292 322 350 338 310 324 342 338 322 315 307 305 310 319 324 319 308 308 312 302 295 300 306 304 303 306
203 204 207 208 208 207 207 206 205 204 200 198 196 194 192 191 189 188 187 186 184 184 183 183 183 184 185 186 187 189 187 185 186 189 189 190 191 191 190 188 188 189 191 193 194 196 196 197 198 201 206 211 215 218 223 228 236 246 260 284 310 319 304 306 322 336 335 326 321 319 323 331 337 339 333 320 324 323 296 286 294 298 297 298 303
203 203 205 207 207 207 206 205 205 204 201 198 195 193 192 190 188 186 186 186 184 183 184 184 183 183 184 185 187 190 191 188 187 189 190 191 192 193 193 192 192 193 193 194 195 195 196 199 203 206 212 216 216 219 225 228 235 245 251 251 264 276 293 311 322 326 328 331 335 340 346 349 348 347 342 325 313 309 295 288 289 289 291 295 298
202 199 200 203 205 205 205 205 205 204 201 198 195 193 193 191 188 186 185 185 184 183 183 184 183 182 183 185 187 191 193 192 189 189 190 192 193 194 195 197 199 198 197 196 197 198 200 204 208 210 214 217 216 218 223 227 233 239 234 235 255 274 293 311 316 314 322 337 347 352 355 353 349 348 343 325 298 297 304 299 290 285 286 289 294
201 196 194 198 203 204 203 204 203 202 200 197 194 193 192 191 188 186 185 184 183 182 182 182 182 182 183 185 188 190 193 195 192 190 191 193 194 195 197 201 203 203 201 199 199 204 208 210 213 214 215 216 216 217 222 227 229 229 233 244 260 275 291 300 301 310 327 346 353 353 352 349 345 341 334 315 292 297 307 304 297 289 282 281 286
204 200 198 200 202 203 203 202 201 200 199 197 194 191 189 188 187 186 185 183 181 180 181 182 182 181 181 184 188 190 192 194 194 192 192 192 194 195 197 202 206 206 205 205 208 212 214 214 215 215 215 216 216 217 221 224 228 232 239 251 261 267 279 288 295 312 333 347 352 350 345 341 338 331 319 302 295 306 313 315 322 316 293 285 287
205 203 203 203 202 202 202 202 201 200 199 197 193 190 188 187 186 186 186 183 181 180 181 182 182 181 181 183 187 190 191 192 195 195 193 193 195 195 196 202 205 204 206 211 215 216 217 217 216 214 215 217 216 217 221 223 227 235 241 248 254 257 265 277 291 313 332 341 344 342 338 334 330 319 307 306 315 324 322 318 322 321 307 301 304
201 201 202 202 202 202 201 201 202 202 200 199 196 192 190 188 186 187 186 185 183 182 182 183 183 183 183 185 188 190 191 190 193 194 194 195 195 195 197 202 204 204 208 214 216 217 218 218 215 212 213 217 218 220 225 228 231 237 241 242 247 253 261 273 289 309 324 331 332 332 330 327 322 316 313 317 327 331 324 313 311 314 311 308 308
196 198 200 201 201 201 198 198 200 201 201 201 200 197 194 191 188 187 186 186 187 185 184 184 185 185 187 189 190 191 191 191 192 193 193 195 196 197 198 201 202 206 211 214 214 216 217 214 211 211 212 217 222 226 229 233 235 237 239 241 245 252 260 274 291 304 314 320 323 325 326 322 320 323 324 325 330 333 329 320 316 319 321 318 313
194 196 198 198 199 200 198 197 197 198 199 199 199 199 198 195 191 189 188 189 189 188 187 187 187 189 192 193 193 193 193 194 194 193 192 193 195 196 197 198 203 208 209 210 210 213 213 209 208 211 213 215 223 230 234 237 238 237 237 240 244 252 261 273 288 300 307 314 318 321 325 326 322 322 325 327 331 334 333 327 322 324 328 328 323
195 196 197 197 198 198 199 199 197 197 198 198 198 198 199 197 197 196 196 196 194 192 193 193 194 196 196 194 192 192 194 198 200 200 199 198 196 196 196 198 204 208 208 208 210 210 208 206 207 210 211 214 221 229 234 237 237 237 239 240 242 247 257 271 285 293 302 312 318 321 326 329 322 312 312 320 328 332 331 327 326 327 329 330 326
193 194 195 197 198 197 199 201 200 199 200 200 201 202 202 202 203 204 205 204 201 200 200 201 203 204 203 200 197 194 197 205 209 208 207 206 203 203 205 206 208 210 211 212 212 208 205 205 208 209 210 213 219 226 231 234 236 238 239 239 240 242 248 258 269 281 294 307 316 321 322 321 315 309 304 310 323 330 328 326 328 328 328 328 324
188 192 194 196 198 198 199 201 203 203 202 201 203 206 208 208 208 208 209 209 208 207 208 208 210 210 209 209 209 208 210 215 215 210 209 209 209 211 214 214 213 214 215 213 209 207 205 206 208 210 210 212 217 223 227 231 234 237 238 236 237 239 243 251 259 270 286 300 310 318 316 304 300 304 302 302 317 328 328 327 329 328 326 324 320
186 190 194 197 200 200 201 202 203 204 205 204 204 205 208 212 213 213 213 213 212 214 216 217 218 217 215 215 215 215 218 221 218 213 211 210 211 212 213 214 214 214 214 210 206 205 207 208 209 210 211 213 217 221 225 228 232 234 235 235 237 238 241 249 256 265 281 296 305 310 301 287 290 299 301 305 319 327 327 329 331 326 321 317 314
192 193 196 200 202 203 204 205 204 204 205 206 206 205 206 209 212 216 218 218 218 220 221 223 224 224 223 221 218 217 219 221 221 219 214 212 212 212 211 213 213 211 210 210 208 208 209 209 211 212 212 214 217 220 222 225 229 230 230 232 235 238 241 248 255 264 276 290 301 303 293 287 297 305 304 311 325 328 325 328 329 322 316 311 309
205 203 202 202 202 204 206 206 207 208 208 208 208 208 207 207 207 211 216 220 224 225 226 227 227 227 227 228 226 224 223 222 223 221 216 212 211 209 207 209 209 205 205 208 210 210 211 212 214 215 215 216 218 219 220 223 226 227 228 231 234 238 242 248 255 264 272 281 291 297 298 301 306 304 299 307 322 321 318 323 323 317 311 309 309
214 213 212 209 207 208 210 210 211 213 212 212 212 211 212 213 211 209 209 211 217 224 227 229 229 230 231 232 231 229 227 225 224 221 214 208 206 204 202 201 203 204 208 212 213 213 213 215 216 217 217 218 220 220 220 222 224 225 227 230 232 237 243 248 253 258 265 273 280 287 294 299 299 295 295 307 319 317 314 316 317 313 310 308 309
216 218 218 217 215 214 216 217 217 217 216 217 217 216 217 218 218 216 213 210 211 217 222 224 226 229 231 232 232 231 229 226 224 220 212 206 203 199 194 192 195 201 208 215 218 217 218 219 219 219 218 219 220 221 220 221 224 225 226 228 230 233 239 246 251 255 257 261 267 273 285 293 296 300 307 311 314 312 309 311 310 308 306 307 308
214 217 218 218 219 219 221 222 221 221 221 220 220 220 220 220 219 220 221 220 219 219 220 221 222 225 228 231 232 229 225 221 218 214 209 204 199 194 194 198 200 201 205 214 220 221 222 223 223 222 221 221 222 222 222 222 224 225 226 228 229 231 236 242 248 253 253 253 256 266 277 284 290 306 316 314 310 304 300 303 305 302 300 304 307
214 219 220 220 221 222 224 226 226 225 225 224 222 222 222 221 221 221 222 222 222 221 221 220 217 215 217 222 223 218 213 210 207 205 204 202 199 199 206 210 209 207 210 217 222 223 223 224 223 223 224 224 224 224 223 223 224 224 225 227 229 232 236 242 247 250 252 252 254 263 274 280 289 309 319 312 305 301 297 298 301 299 297 299 302
217 221 224 224 225 224 225 228 228 226 225 225 223 222 222 222 222 221 221 221 220 219 220 219 215 212 213 216 214 208 202 199 196 198 201 202 203 207 213 216 216 215 218 223 225 225 225 225 223 223 224 224 225 225 224 223 224 224 224 227 230 232 235 240 245 249 252 255 257 262 269 277 289 304 310 302 295 294 293 295 296 295 295 297 298
213 219 224 226 227 226 226 228 227 225 225 225 225 224 224 224 223 222 223 223 222 221 221 220 219 219 219 217 211 203 197 196 198 201 203 205 207 211 215 217 218 220 223 226 227 228 229 228 226 225 225 225 225 225 224 224 224 225 225 228 230 232 234 237 243 249 251 253 256 259 264 272 284 294 296 292 287 285 288 291 291 290 291 293 294
209 216 221 224 226 229 230 229 229 228 228 228 228 228 226 226 227 226 225 225 225 225 225 224 225 226 225 221 215 208 204 204 206 207 208 210 212 214 216 219 222 224 226 227 229 231 231 230 229 227 226 226 225 225 225 224 224 225 226 228 231 234 235 237 241 247 250 251 253 257 261 269 278 285 285 281 279 282 288 290 287 287 287 286 288
210 215 219 223 227 229 230 230 232 234 236 236 235 234 232 232 232 231 231 231 231 231 232 232 233 234 233 229 225 221 218 217 217 216 216 217 217 218 221 225 227 229 231 232 233 233 232 231 230 229 228 227 227 226 225 224 224 224 226 229 232 235 237 238 240 244 248 251 254 258 262 266 270 272 277 281 282 286 292 291 287 285 285 284 285
209 216 219 227 231 231 234 237 239 241 242 241 240 239 239 239 238 237 236 237 237 237 238 239 240 241 239 236 234 230 228 227 226 224 224 224 224 225 227 230 232 235 238 239 238 237 235 232 230 230 229 228 228 227 225 224 225 226 228 231 233 235 238 240 241 242 245 250 255 258 262 266 268 268 275 282 286 292 302 306 298 288 283 283 285
196 208 218 231 238 242 244 248 248 247 245 246 247 248 247 246 246 244 244 244 243 243 243 244 245 244 244 242 240 236 234 233 232 231 230 230 230 231 233 236 238 240 242 243 243 242 239 234 232 231 231 231 231 231 230 229 229 230 232 234 236 238 240 242 242 243 244 248 252 256 260 265 268 270 273 278 283 292 306 314 307 292 284 284 285
184 199 224 239 248 250 250 251 251 251 251 252 253 254 253 252 251 250 249 249 249 249 248 249 249 249 248 245 242 239 237 237 237 236 235 235 235 236 239 241 242 242 243 244 245 247 244 236 232 232 232 232 232 232 232 232 233 234 235 236 237 239 241 243 243 245 246 246 249 253 256 260 264 265 266 270 277 285 296 307 305 293 285 284 284
188 218 243 256 261 261 259 258 257 256 257 258 257 257 257 255 254 253 253 254 255 255 255 254 254 253 251 248 244 242 242 243 243 243 241 240 241 243 245 246 246 246 246 246 247 249 245 237 232 231 231 231 231 231 231 233 234 235 236 238 239 241 243 244 244 244 244 245 248 251 253 255 259 259 259 265 272 277 284 298 306 303 292 285 283
202 226 248 261 265 265 266 266 265 264 263 262 260 261 261 260 259 259 259 258 258 259 259 259 257 257 256 254 250 248 249 249 250 249 249 248 248 250 251 250 249 250 250 250 249 248 243 237 233 232 232 232 232 233 233 234 236 237 238 239 240 242 244 243 242 241 242 244 247 250 251 253 256 257 258 263 267 270 277 291 302 306 300 293 290
246 257 261 263 265 265 266 267 268 268 267 265 264 265 266 266 266 266 265 264 263 263 263 262 261 259 260 259 257 255 255 255 255 255 256 256 256 256 255 254 253 253 253 252 251 248 243 238 235 234 234 234 235 235 235 236 237 239 240 241 241 241 242 242 241 241 243 245 246 248 250 252 254 256 258 261 262 266 275 286 295 301 303 302 297
276 274 271 269 268 270 271 272 271 270 269 269 270 269 269 269 270 270 269 268 267 265 265 265 264 263 264 264 263 261 261 261 260 261 261 262 262 261 259 257 256 255 254 253 251 248 243 238 235 235 235 234 234 235 236 238 239 240 241 242 242 242 242 242 242 242 243 245 246 247 250 251 251 253 256 258 259 264 272 281 287 293 300 303 299
271 270 270 270 271 273 275 275 274 272 271 272 272 272 271 271 271 270 270 269 269 268 267 266 266 266 266 267 267 267 266 264 264 264 264 264 265 264 262 259 258 257 254 252 251 248 243 238 235 235 235 234 233 234 237 239 240 241 242 243 244 243 242 242 243 243 243 245 246 247 248 249 250 251 254 257 260 264 268 274 280 287 293 297 297
263 262 263 264 267 270 271 272 272 271 271 272 272 271 271 270 269 268 269 269 269 269 268 268 269 270 270 270 271 271 270 268 267 267 268 268 268 267 264 261 259 256 254 252 250 247 242 237 235 235 234 232 232 234 237 239 239 240 241 243 244 243 242 242 242 242 242 243 245 247 248 248 248 249 251 254 260 264 267 270 276 281 285 288 291
268 268 267 266 267 268 268 268 269 269 270 270 268 267 267 267 266 265 265 266 266 266 266 266 269 270 269 270 272 273 272 271 271 270 270 271 272 270 267 263 259 256 254 252 250 246 241 237 236 235 233 231 231 234 236 238 239 241 242 241 241 241 242 242 241 240 240 241 243 245 246 246 245 246 248 252 259 264 267 270 273 276 277 279 284